Location: Marion Hill
(40.7303°N, 80.2959°W)
Time: 07:54:01
(UTC+00:00)

CSL-04 Rocket - Pass Details

Date: 29 October 2020
Orbit: 805 x 861 km, 98.9° (Epoch: 28 November)

Event Time Altitude Azimuth Distance (km) Brightness Sun altitude
Exits shadow 23:39:10 - 137° (SE) 2,789 6.0 -15.4°
Reaches altitude 10° 23:40:00 10° 134° (SE) 2,489 5.8 -15.6°
Maximum altitude 23:45:03 38° 68° (ENE) 1,294 4.2 -16.5°
Drops below altitude 10° 23:50:04 10° 2° (N) 2,483 6.1 -17.5°
Sets 23:52:34 0° 355° (N) 3,415 6.9 -18.0°
